Overview Statistics Trail Chart Weather Telemetry Raw packets
 

This is the latest recevied weather packets stored in our database for station/object KW4UJ. If no packets are shown the sender has not sent any weather packets the latest 10 day(s).

<< 63 64 65 66 67 68 69 >>
Time Temp. Humidity Pressure Rain* Wind** Luminosity Snow
1788192254 27.78° C 79% 1020.3 hPa 0 mm - 232 W/m² -
1788191954 27.78° C 79% 1020.2 hPa 0 mm - 177 W/m² -
1788191654 27.78° C 79% 1019.9 hPa 0 mm - 157 W/m² -
1788191349 27.78° C 78% 1019.9 hPa 0 mm - 247 W/m² -
1788191046 27.78° C 78% 1019.7 hPa 0 mm - 233 W/m² -
1788190744 27.78° C 79% 1019.9 hPa 0 mm - 274 W/m² -
1788190440 27.22° C 79% 1019.9 hPa 0 mm - 226 W/m² -
1788190136 27.22° C 80% 1020.1 hPa 0 mm - 186 W/m² -
1788189831 27.22° C 81% 1019.7 hPa 0 mm - 167 W/m² -
1788189532 26.67° C 83% 1019.7 hPa 0 mm - 118 W/m² -
1788189231 26.67° C 84% 1019.8 hPa 0 mm - 110 W/m² -
1788188926 26.67° C 84% 1019.9 hPa 0 mm - 198 W/m² -
1788188622 26.67° C 83% 1020 hPa 0 mm - 185 W/m² -
1788188320 26.67° C 83% 1020.2 hPa 0 mm - 174 W/m² -
1788188017 26.67° C 84% 1020.2 hPa 0 mm - 202 W/m² -
1788187712 26.67° C 84% 1020.1 hPa 0 mm - 246 W/m² -
1788187409 26.11° C 84% 1019.9 hPa 0 mm - 233 W/m² -
1788187109 26.11° C 85% 1019.9 hPa 0 mm - 180 W/m² -
1788186804 26.67° C 84% 1019.9 hPa 0 mm - 156 W/m² -
1788186499 26.67° C 84% 1019.9 hPa 0 mm - 191 W/m² -
1788186195 26.11° C 86% 1019.8 hPa 0 mm - 242 W/m² -
1788185895 25.56° C 88% 1019.7 hPa 0 mm - 193 W/m² -
1788185589 25.56° C 88% 1019.8 hPa 0 mm - 179 W/m² -
1788185284 25° C 89% 1019.8 hPa 0 mm - 150 W/m² -
1788184978 25° C 88% 1019.8 hPa 0 mm - 137 W/m² -

* Rain latest hour (hover to see other rain measurements)
** Current wind speed in m/s (hover to see current wind gust speed)